{"data":{"norad_id":49738,"intl_designator":"2021-115Q","name":"STARLINK-3143","alt_names":[],"object_type":"PAYLOAD","status":"ACTIVE","operator":null,"country":"US","launch_date":"2021-12-02","launch_site_code":"AFETR","launch_vehicle":null,"mission":null,"orbit_class":"UNKNOWN","rcs_meters":null,"size_class":null,"mass_kg":null,"dimensions":null,"purposes":["comms"],"wikipedia_slug":null,"has_3d_model":false,"image_url":null,"decayed_at":null,"tle_current":{"epoch":"2026-09-19T18:34:07.969440Z","epoch_age_seconds":108075,"freshness":"FRESH","line1":"1 49738U 21115Q   26262.77370335  .00013434  00000+0  74932-3 0  9996","line2":"2 49738  53.2156 355.1774 0001239  79.3713 280.7420 15.13866663264877","mean_motion":15.13866663,"eccentricity":0.0001239,"inclination_deg":53.2156,"raan_deg":355.1774,"arg_perigee_deg":79.3713,"mean_anomaly_deg":280.742,"bstar":0.00074932,"rev_number":26487,"period_min":95.120662552036,"perigee_km":523.56619357013,"apogee_km":525.27664754674,"semimajor_km":6902.5584205584,"source":"CELESTRAK","updated_at":"2026-09-20T09:00:39.405614Z"}}}